Weather Roundup
Issued by NWS

Home | Current Version | Previous Version | Text Only | Print | Product List | Glossary On
Versions: 1 2 3 4 5 6 7 8 9 10 11 12 13 14 15 16 17 18 19 20 21 22 23 24 25 26 27 28 29 30 31 32 33 34 35 36 37 38 39 40 41 42 43 44 45 46 47 48 49 50
000
NZUS93 KARX 070210
HRRWXR

CURRENT HOURLY OBSERVATIONS ACROSS
MUCH OF THE UPPER MISSISSIPPI VALLEY
NATIONAL WEATHER SERVICE LA CROSSE WI
900 PM CDT WED MAY 06 2015


...SOUTHEAST MINNESOTA...


CITY           SKY/WX    TMP DP  RH WIND       PRES   REMARKS
ROCHESTER      CLOUDY    65  59  81 S14       29.92S
ROCHESTER/MAYO FAIR      66  61  84 SE13      29.91S
WINONA         CLOUDY    64  59  82 SE6       29.93S
AUSTIN         CLOUDY    66  61  82 SE7       29.90R
ALBERT LEA     MOCLDY    68  57  68 S15       29.88R
DODGE CENTER   CLOUDY    64  61  88 S10       29.90S
PRESTON        CLOUDY    64  58  80 S12       29.93S
OWATONNA       MOCLDY    68  61  77 SE15G22   29.87S
FARIBAULT      MOCLDY    70  61  73 SE13      29.87S
$$

...ELSEWHERE IN MINNESOTA...


CITY           SKY/WX    TMP DP  RH WIND       PRES   REMARKS
MINNEAPOLIS    MOCLDY    68  60  75 SE10      29.86S
INTNL FALLS    CLOUDY    63  54  72 SE10      29.85S
DULUTH         CLOUDY    57  43  59 E18       29.93S
RED WING       CLOUDY    66  61  82 SE10      29.89S
REDWOOD FALLS  MOCLDY    69  60  73 S16       29.78R
MANKATO        MOCLDY    72  55  56 S16G24    29.84R
WORTHINGTON    CLOUDY    66  55  68 S14       29.78S
FAIRMONT       MOCLDY    70  37  30 SE16      29.83R
$$

...SOUTHWEST WISCONSIN...


CITY           SKY/WX    TMP DP  RH WIND       PRES   REMARKS
LA CROSSE      CLOUDY    67  61  81 S7        29.95S
PRAIRIE DU CHI CLOUDY    67  57  69 SE5       29.96F
BOSCOBEL       MOCLDY    69  58  67 SW3       29.98F
LONE ROCK      MOCLDY    71  57  61 SW7       30.00R
PLATTEVILLE    MOCLDY    67  60  76 CALM      30.00S
FORT MC COY    MOCLDY    64  60  86 CALM      30.00R
VIROQUA        CLOUDY    66  59  76 S8        29.99F
WIS DELLS      MOCLDY    68  59  73 E10       30.00S
$$

...ELSEWHERE IN WISCONSIN...


CITY           SKY/WX    TMP DP  RH WIND       PRES   REMARKS
MILWAUKEE      FOG       45  43  93 NE6       30.10S VSB 1/8
MADISON        MOCLDY    68  59  73 SE12      30.01F
GREEN BAY      PTCLDY    61  55  81 SE7       30.08S
EAU CLAIRE     CLOUDY    63  59  87 SE9       29.95F
BLACK RVR FLS  RAIN      63  62  99 E7        29.98F
MEDFORD        CLOUDY    65  57  77 SE10      30.01R
WAUSAU         CLOUDY    64  57  78 E13       30.01F
WIS RAPIDS     MOCLDY    67  56  67 E8        30.02S
MARSHFIELD     MOCLDY    67  58  72 SE10      30.00S
RICE LAKE      DRIZZLE   64  60  88 E7        29.96S
$$

...NORTHEAST IOWA...


CITY           SKY/WX    TMP DP  RH WIND       PRES   REMARKS
DECORAH        CLOUDY    64  59  82 S10G20    29.94S
MASON CITY     CLOUDY    64  58  80 SE9       29.90R
CHARLES CITY   CLOUDY    66  64  94 SE15      29.93R
OELWEIN        CLOUDY    64  61  88 SE14      29.96R
$$

...ELSEWHERE IN IOWA...


CITY           SKY/WX    TMP DP  RH WIND       PRES   REMARKS
DES MOINES     MOCLDY    70  58  65 S15       29.88S
IOWA CITY      PTCLDY    64  61  90 SE5       29.97S
FORT DODGE     PTCLDY    68  57  68 SE10G20   29.86S
$$

...NORTHERN ILLINOIS...


CITY           SKY/WX    TMP DP  RH WIND       PRES   REMARKS
CHICAGO-OHARE  MOCLDY    60  53  77 NE7       30.06S
CHICAGO-MIDWAY MOCLDY    60  53  77 NE7       30.07R
MOLINE         MOCLDY    65  60  84 SE3       29.98S
ROCKFORD       PTCLDY    70  59  68 E12       30.04R
PEORIA         CLEAR     75  52  44 S6        30.01R
$$

NOTE: "FAIR" INDICATES FEW OR NO CLOUDS BELOW 12,000 FEET WITH NO
SIGNIFICANT WEATHER AND/OR OBSTRUCTIONS TO VISIBILITY. WIND
SPEEDS ARE IN MILES-PER-HOUR.



USA.gov is the U.S. government's official web portal to all federal, state and local government web resources and services.